sat.trackr.live / text

‹ back to catalog

KUIPER-00103

NORAD 65141 · 2025-171K

PAYLOAD ACTIVE UNKNOWN

§ Identity

Operator
Country
US
Launch date
2025-08-11
Launch site
AFETR
Launch vehicle
Mass (kg)
RCS (m²)

External: N2YO · Heavens-Above · Gunter

§ Orbital elements

Epoch: 2026-09-21T16:03:44.258400Z

Period
97.30 min
Inclination
51.9007°
Eccentricity
0.0000322
Mean motion
14.79931769 rev/d
Perigee alt
629.3 km
Apogee alt
629.8 km
Semi-major
7,007.7 km
B*
9.2671e-5
RAAN
23.9232°
Arg perigee
120.0280°
Mean anomaly
240.0715°
Rev number
6,173

§ Raw data

KUIPER-001031 65141U 25171K   26264.66926225  .00000485  00000+0  92671-4 0  99962 65141  51.9007  23.9232 0000322 120.0280 240.0715 14.79931769 61734

JSON: /api/v1/satellites/65141 · /tle

For live sub-satellite position, see the globe view (requires WebGL).

§ Visibility from observer

Set your observer location to see the next 7 days of passes ≥ 10°. The values pass through the URL so the page stays shareable.

No JS? Fill the form by hand. The geolocation button needs JavaScript.